Waarnemingen

Advertentie
Mijn weer
Cap Bear, Frankrijk (7749): temperatuur & dauwpunt: 12.11.2017 04:00:00 - 18.11.2017 04:00:00 (CET)Cap Bear, Frankrijk (7749): windsnelheid & windstoten: 12.11.2017 04:00:00 - 18.11.2017 04:00:00 (CET)Cap Bear, Frankrijk (7749): windrichting: 12.11.2017 04:00:00 - 18.11.2017 04:00:00 (CET)Cap Bear, Frankrijk (7749): luchtdruk: 12.11.2017 04:00:00 - 18.11.2017 04:00:00 (CET)Cap Bear, Frankrijk (7749): zicht: 12.11.2017 04:00:00 - 18.11.2017 04:00:00 (CET)Cap Bear, Frankrijk (7749): neerslag: 12.11.2017 04:00:00 - 18.11.2017 04:00:00 (CET)
Datum & Tijd tt [°C] td [°C] ff [km/u] ff [kn] fx [km/u] fx [kn] dd ppp [hPa] vv [km] rr [mm]
18.11.2017 04:00:00 - - - - - - - - - -
18.11.2017 03:00:00 12,6 5,5 28 15 55 30 NW 1019,6 - 0,0
18.11.2017 02:00:00 13,1 5,3 36 19 59 32 WNW 1019,4 - 0,0
18.11.2017 01:00:00 13,8 4,6 39 21 79 43 NW 1019,3 - 0,0
18.11.2017 00:00:00 13,9 4,7 45 24 68 37 NW 1019,0 - 0,0
17.11.2017 23:00:00 14,2 4,2 36 19 61 33 NW 1019,4 - 0,0
17.11.2017 22:00:00 15,2 2,7 30 16 49 26 NW 1019,4 - 0,0
17.11.2017 21:00:00 15,5 1,9 28 15 44 24 NW 1019,2 - 0,0
17.11.2017 20:00:00 15,8 1,1 26 14 53 29 NW 1019,2 - 0,0
17.11.2017 19:00:00 16,8 0,4 28 15 55 30 NW 1018,6 25 0,0
17.11.2017 18:00:00 17,2 0,8 29 16 55 30 NW 1018,1 - 0,0
17.11.2017 17:00:00 18,0 3,5 48 26 61 33 NW 1017,3 - 0,0
17.11.2017 16:00:00 19,2 2,1 39 21 58 31 NW 1017,0 - 0,0
17.11.2017 15:00:00 19,7 2,1 34 18 53 28 NW 1017,5 - 0,0
17.11.2017 14:00:00 19,5 2,4 46 25 55 30 NNW 1017,5 - 0,0
17.11.2017 13:00:00 17,9 6,1 44 24 52 28 NNW 1018,2 20 0,0
17.11.2017 12:00:00 16,2 6,9 30 16 46 25 NNW 1019,0 - 0,0
17.11.2017 11:00:00 16,7 4,4 38 20 52 28 NNW 1019,4 - 0,0
17.11.2017 10:00:00 15,8 0,0 37 20 59 32 NW 1019,2 20 0,0
17.11.2017 09:00:00 14,7 0,1 35 19 58 31 NW 1019,5 - 0,0
17.11.2017 08:00:00 13,7 0,7 35 19 47 26 NW 1019,2 - 0,0
17.11.2017 07:00:00 13,2 4,3 29 15 39 21 NNW 1019,2 - 0,0
17.11.2017 06:00:00 14,0 1,6 34 18 48 26 NNW 1018,8 - 0,0
17.11.2017 05:00:00 14,6 -0,7 30 16 48 26 NW 1019,0 - 0,0
17.11.2017 04:00:00 13,6 2,5 33 18 44 24 NW 1019,0 20 0,0
17.11.2017 03:00:00 14,7 -0,2 29 15 37 20 NW 1019,2 - 0,0
17.11.2017 02:00:00 13,3 3,9 24 13 32 18 NW 1019,8 - 0,0
17.11.2017 01:00:00 11,6 5,9 15 8 26 14 NW 1020,3 - 0,0
17.11.2017 00:00:00 11,8 5,4 12 6 33 18 NW 1020,3 - 0,0
16.11.2017 23:00:00 13,1 4,0 29 16 50 27 NNW 1020,2 - 0,0
16.11.2017 22:00:00 12,8 3,2 31 17 47 26 NW 1020,4 - 0,0
16.11.2017 21:00:00 10,1 4,5 9 5 23 12 NNW 1020,9 - 0,0
16.11.2017 20:00:00 10,5 6,6 7 4 11 6 NW 1020,9 - 0,0
16.11.2017 19:00:00 10,5 6,3 4 2 13 7 NW 1020,7 20 0,0
16.11.2017 18:00:00 10,5 6,1 6 3 9 5 Z 1020,3 - 0,0
16.11.2017 17:00:00 10,8 6,2 4 2 10 6 ONO 1020,0 - 0,0
16.11.2017 16:00:00 11,6 6,3 4 2 15 8 OZO 1019,7 20 0,0
16.11.2017 15:00:00 11,7 6,6 6 3 16 8 O 1020,0 - 0,0
16.11.2017 14:00:00 12,1 7,0 10 5 18 10 ZO 1020,3 - 0,0
16.11.2017 13:00:00 12,1 6,6 10 5 16 8 ZO 1021,0 - 0,0
16.11.2017 12:00:00 10,8 6,2 7 4 16 8 NNO 1021,9 - 0,0
16.11.2017 11:00:00 10,1 4,7 12 6 16 9 NW 1022,4 - 0,0
16.11.2017 10:00:00 9,0 5,0 14 8 16 9 NNW 1022,0 20 0,0
16.11.2017 09:00:00 8,2 2,4 10 5 18 10 NNW 1021,5 - 0,0
16.11.2017 08:00:00 7,7 2,0 16 9 23 12 NNW 1021,0 - 0,0
16.11.2017 07:00:00 7,6 2,5 14 8 17 9 NW 1020,5 20 0,0
16.11.2017 06:00:00 8,3 4,5 9 5 14 8 NW 1020,3 - 0,0
16.11.2017 05:00:00 9,6 4,2 0 0 10 5 N 1020,3 - 0,0
16.11.2017 04:00:00 9,8 4,6 4 2 13 7 ZZO 1020,4 20 0,0
16.11.2017 03:00:00 10,1 4,7 6 4 20 11 O 1020,6 - 0,0
16.11.2017 02:00:00 10,2 4,8 14 7 22 12 ONO 1020,4 - 0,0
16.11.2017 01:00:00 10,5 4,0 14 7 30 16 ONO 1020,5 - 0,0
16.11.2017 00:00:00 11,0 4,9 18 10 31 17 ONO 1020,6 - 0,0
15.11.2017 23:00:00 11,6 5,0 15 8 29 15 ONO 1020,7 - 0,0
15.11.2017 22:00:00 12,2 3,9 22 12 31 17 NNO 1020,6 - 0,0
15.11.2017 21:00:00 12,8 5,9 9 5 20 11 NO 1020,2 - 0,0
15.11.2017 20:00:00 13,6 4,2 5 3 11 6 Z 1019,5 - 0,0
15.11.2017 19:00:00 13,3 4,2 8 5 10 6 Z 1019,0 18 0,0
15.11.2017 18:00:00 13,7 4,3 5 3 13 7 OZO 1018,6 - 0,0
15.11.2017 17:00:00 14,8 2,3 5 3 29 15 N 1018,1 - 0,0
15.11.2017 16:00:00 15,4 2,9 16 9 32 17 N 1017,6 25 0,0
15.11.2017 15:00:00 15,5 4,5 10 5 20 11 NW 1017,7 - 0,0
15.11.2017 14:00:00 16,7 4,7 17 9 24 13 NNO 1017,7 - 0,0
15.11.2017 13:00:00 15,9 3,7 18 10 24 13 N 1018,4 25 0,0
15.11.2017 12:00:00 14,8 2,3 16 8 40 22 N 1019,1 - 0,0
15.11.2017 11:00:00 14,0 -3,8 31 17 44 24 NW 1019,0 - 0,0
15.11.2017 10:00:00 12,7 -2,8 32 17 55 30 NW 1019,4 - 0,0
15.11.2017 09:00:00 11,8 -5,2 33 18 49 27 NW 1018,9 - 0,0
15.11.2017 08:00:00 10,7 -3,8 32 17 52 28 NW 1019,2 - 0,0
15.11.2017 07:00:00 10,1 -4,7 32 18 48 26 NW 1018,9 20 0,0
15.11.2017 06:00:00 9,5 -2,5 32 17 50 27 NW 1018,8 - 0,0
15.11.2017 05:00:00 9,9 -0,6 41 22 62 33 NW 1018,9 - 0,0
15.11.2017 04:00:00 9,7 -1,7 46 25 66 36 NW 1018,6 20 0,0
15.11.2017 03:00:00 9,8 -1,3 50 27 78 42 NW 1018,5 - 0,0
15.11.2017 02:00:00 9,2 0,1 50 27 95 51 NW 1018,5 - 0,0
15.11.2017 01:00:00 9,1 0,8 48 26 79 43 NW 1019,0 - 0,0
15.11.2017 00:00:00 9,0 0,9 45 24 74 40 NW 1020,4 - 0,0
14.11.2017 23:00:00 9,1 1,0 52 28 91 49 NW 1020,2 - 0,0
14.11.2017 22:00:00 9,2 0,6 41 22 73 39 NW 1020,9 - 0,0
14.11.2017 21:00:00 9,3 1,0 42 23 73 40 NW 1021,2 - 0,0
14.11.2017 20:00:00 9,4 0,8 44 24 83 45 NW 1021,0 - 0,0
14.11.2017 19:00:00 10,5 2,1 71 38 88 48 NNW 1020,2 15 0,0
14.11.2017 18:00:00 10,9 3,0 67 36 83 45 NNW 1018,8 - 0,0
14.11.2017 17:00:00 11,3 2,3 72 39 94 51 NNW 1018,1 - 0,0
14.11.2017 16:00:00 11,8 1,7 80 43 100 54 NNW 1018,3 - 0,0
14.11.2017 15:00:00 11,8 2,0 86 47 104 56 NNW 1017,6 - 0,0
14.11.2017 14:00:00 11,8 2,0 86 47 112 61 NNW 1016,6 - 0,0
14.11.2017 13:00:00 11,4 1,1 96 52 114 62 NNW 1016,1 15 0,0
14.11.2017 12:00:00 11,0 1,0 94 51 116 63 NNW 1016,8 - 0,0
14.11.2017 11:00:00 10,3 1,4 95 51 119 64 NNW 1017,8 - 0,0
14.11.2017 10:00:00 9,6 1,2 101 55 125 68 NNW 1016,9 - 0,0
14.11.2017 09:00:00 9,4 2,5 103 55 133 72 NNW 1016,6 - 0,0
14.11.2017 08:00:00 9,0 1,4 93 50 120 65 NNW 1015,5 - 0,0
14.11.2017 07:00:00 8,9 1,5 98 53 129 70 NNW 1015,3 15 0,0
14.11.2017 06:00:00 - - - - - - - - - -
14.11.2017 05:00:00 - - - - - - - - - -
14.11.2017 04:00:00 - - - - - - - - - -
14.11.2017 03:00:00 - - - - - - - - - -
14.11.2017 02:00:00 - - - - - - - - - -
14.11.2017 01:00:00 - - - - - - - - - -
14.11.2017 00:00:00 - - - - - - - - - -
13.11.2017 23:00:00 - - - - - - - - - -
13.11.2017 22:00:00 - - - - - - - - - -
13.11.2017 21:00:00 - - - - - - - - - -
13.11.2017 20:00:00 - - - - - - - - - -
13.11.2017 19:00:00 - - - - - - - - - -
13.11.2017 18:00:00 - - - - - - - - - -
13.11.2017 17:00:00 - - - - - - - - - -
13.11.2017 16:00:00 - - - - - - - - - -
13.11.2017 15:00:00 - - - - - - - - - -
13.11.2017 14:00:00 - - - - - - - - - -
13.11.2017 13:00:00 - - - - - - - - - -
13.11.2017 12:00:00 10,0 0,3 104 56 141 76 NW 1012,7 - 0,0
13.11.2017 11:00:00 9,7 0,3 98 53 125 68 NNW 1014,0 - 0,0
13.11.2017 10:00:00 9,1 0,8 94 51 117 63 NNW 1014,5 25 0,0
13.11.2017 09:00:00 8,9 1,1 82 45 106 58 NNW 1014,9 - 0,0
13.11.2017 08:00:00 8,6 1,3 79 42 106 58 NNW 1014,7 - 0,0
13.11.2017 07:00:00 8,5 0,9 81 44 112 61 NW 1014,0 20 0,0
13.11.2017 06:00:00 8,5 1,2 68 37 118 64 NW 1013,1 - 0,0
13.11.2017 05:00:00 9,2 2,1 89 48 127 69 NW 1012,5 - 0,0
13.11.2017 04:00:00 9,5 2,6 92 50 115 62 NNW 1012,1 20 0,0
13.11.2017 03:00:00 10,0 3,0 86 47 107 58 NNW 1012,4 - 0,0
13.11.2017 02:00:00 10,6 2,4 74 40 114 61 NW 1012,7 - 0,0
13.11.2017 01:00:00 11,1 2,9 78 42 126 68 NW 1012,1 - 0,0
13.11.2017 00:00:00 12,1 5,9 94 51 133 72 N 1008,7 18 0,0
12.11.2017 23:00:00 16,3 9,5 84 45 133 72 NNW 1007,2 - 0,0
12.11.2017 22:00:00 17,1 9,5 85 46 109 59 NNW 1006,9 - 0,0
12.11.2017 21:00:00 17,2 9,1 15 8 41 22 NW 1009,1 - 0,0
12.11.2017 20:00:00 16,3 7,8 8 4 32 17 NW 1010,3 - 0,0
12.11.2017 19:00:00 17,3 7,3 10 5 54 29 WZW 1011,1 - 0,0
12.11.2017 18:00:00 17,2 7,8 19 10 53 29 WNW 1011,5 - 0,0
12.11.2017 17:00:00 18,0 8,5 19 10 84 46 W 1012,2 - 0,0
12.11.2017 16:00:00 17,8 9,7 76 41 111 60 NNW 1010,3 25 0,0
12.11.2017 15:00:00 18,0 9,1 65 35 90 48 NNW 1011,4 - 0,0
12.11.2017 14:00:00 18,7 8,9 42 23 77 41 NW 1013,5 - 0,0
12.11.2017 13:00:00 18,1 8,9 56 31 85 46 NW 1013,9 25 0,0
12.11.2017 12:00:00 17,2 9,6 71 38 92 50 NNW 1014,5 - 0,0
12.11.2017 11:00:00 16,5 9,7 69 38 94 51 NNW 1015,2 - 0,0
12.11.2017 10:00:00 16,0 9,2 79 42 103 56 NNW 1015,6 25 0,0
12.11.2017 09:00:00 15,4 9,5 71 38 100 54 NNW 1015,8 - 0,0
12.11.2017 08:00:00 15,4 9,1 83 45 109 59 NNW 1015,3 - 0,0
12.11.2017 07:00:00 15,0 9,1 60 32 95 51 NNW 1016,4 20 0,0
12.11.2017 06:00:00 14,8 9,6 68 37 91 49 NW 1016,8 - 0,0
12.11.2017 05:00:00 15,0 10,2 68 37 92 50 NNW 1016,3 - 0,0
12.11.2017 04:00:00 15,6 10,4 84 45 122 66 NNW 1015,8 20 0,0

tt = temperatuur
td = dauwpunt
ff = windsnelheid
fx = windstoten
dd = windrichting
ppp = luchtdruk
vv = zicht
rr = neerslag

Weerstations in de omgeving